Mount Pleasant, IA

8:42 PM CDT on May 22, 2018 (GMT -0500)
Mount Pleasant Municipal

Weather History for KMPZ - March, 2014

Change the Weather History Date:

Saturday, March 22, 2014

  Actual Average Record
Temperature  
Mean Temperature 32 °F -  
Max Temperature 39 °F 51 °F 78 °F (1988)
Min Temperature 26 °F 30 °F 11 °F (1955)
Degree Days  
Heating Degree Days 32    
Moisture  
Dew Point 19 °F    
Average Humidity 60    
Maximum Humidity 75    
Minimum Humidity 34    
Precipitation  
Precipitation 0.00 in - - ()
Sea Level Pressure  
Sea Level Pressure 30.27 in    
Wind  
Wind Speed 15 mph (NW)    
Max Wind Speed 22 mph    
Max Gust Speed 28 mph    
Visibility 10 miles    
Events      
Averages and records for this station are not official NWS values.
T = Trace of Precipitation, MM = Missing Value Source: NWS Daily Summary

Daily Weather History Graph

Daily Weather History Graph

Search for Another Location

Airport or City:

Astronomy

Mar. 22, 2014 Rise Set
Actual Time 7:06 AM CDT 7:20 PM CDT
Civil Twilight 6:38 AM CDT 7:47 PM CDT
Nautical Twilight 6:06 AM CDT 8:20 PM CDT
Astronomical Twilight 5:33 AM CDT 8:52 PM CDT
Moon 12:42 AM CDT (3/22) 10:47 AM CDT (3/22)
Length of Visible Light 13h 09m
Length of Day
12h 14m
Waning Gibbous, 65% of the Moon is Illuminated
Mar 22
Waning Gibbous
Mar 23
Last Quarter
Mar 30
New
Apr 7
First Quarter
Apr 15
Full

Hourly Weather History & Observations

Time (CDT) Temp. Windchill Dew Point Humidity Pressure Visibility Wind Dir Wind Speed Gust Speed Precip Events Conditions
12:15 AM 36.1 °F 25.0 °F 27.7 °F 71% 30.07 in 10.0 mi NNW 21.9 mph 26.5 mph N/A   Overcast
12:35 AM 35.8 °F 26.5 °F 27.5 °F 72% 30.08 in 10.0 mi NW 15.0 mph 23.0 mph N/A   Overcast
12:55 AM 35.6 °F 25.2 °F 26.6 °F 70% 30.08 in 10.0 mi NW 18.4 mph 27.6 mph N/A   Overcast
1:15 AM 35.1 °F 25.9 °F 26.2 °F 70% 30.09 in 10.0 mi NW 13.8 mph 24.2 mph N/A   Overcast
1:35 AM 34.9 °F 25.7 °F 26.2 °F 71% 30.10 in 10.0 mi NW 13.8 mph - N/A   Overcast
1:55 AM 34.7 °F 25.5 °F 25.9 °F 70% 30.11 in 10.0 mi NW 13.8 mph 19.6 mph N/A   Overcast
2:15 AM 34.2 °F 26.2 °F 25.7 °F 71% 30.12 in 10.0 mi NW 10.4 mph 26.5 mph N/A   Overcast
2:35 AM 33.1 °F 24.4 °F 25.3 °F 73% 30.12 in 10.0 mi NW 11.5 mph 19.6 mph N/A   Scattered Clouds
2:55 AM 32.9 °F 24.1 °F 25.5 °F 74% 30.13 in 10.0 mi NW 11.5 mph - N/A   Scattered Clouds
3:15 AM 32.9 °F 24.7 °F 25.5 °F 74% 30.13 in 10.0 mi WNW 10.4 mph 16.1 mph N/A   Mostly Cloudy
3:35 AM 32.7 °F 23.9 °F 25.5 °F 75% 30.13 in 10.0 mi NW 11.5 mph 19.6 mph N/A   Overcast
3:55 AM 32.5 °F 23.7 °F 25.3 °F 75% 30.14 in 10.0 mi NW 11.5 mph 16.1 mph N/A   Overcast
4:15 AM 32.4 °F 22.1 °F 25.2 °F 75% 30.14 in 10.0 mi NW 15.0 mph 18.4 mph N/A   Overcast
4:35 AM 32.2 °F 21.1 °F 25.0 °F 75% 30.15 in 10.0 mi NW 17.3 mph 23.0 mph N/A   Overcast
4:55 AM 32.0 °F 19.8 °F 24.8 °F 75% 30.16 in 10.0 mi NW 20.7 mph 27.6 mph N/A   Overcast
5:15 AM 32.0 °F 22.5 °F 24.4 °F 74% 30.16 in 10.0 mi NW 12.7 mph 23.0 mph N/A   Overcast
5:35 AM 31.8 °F 21.0 °F 23.9 °F 73% 30.18 in 10.0 mi NW 16.1 mph 21.9 mph N/A   Overcast
5:55 AM 31.6 °F 20.4 °F 23.5 °F 72% 30.19 in 10.0 mi NW 17.3 mph 25.3 mph N/A   Overcast
6:15 AM 31.1 °F 20.1 °F 23.0 °F 72% 30.19 in 10.0 mi NNW 16.1 mph 23.0 mph N/A   Overcast
6:35 AM 31.1 °F 21.4 °F 23.0 °F 72% 30.20 in 10.0 mi WNW 12.7 mph 20.7 mph N/A   Overcast
6:55 AM 30.6 °F 20.7 °F 23.0 °F 74% 30.21 in 10.0 mi NW 12.7 mph 17.3 mph N/A   Overcast
7:15 AM 30.2 °F 20.8 °F 22.8 °F 74% 30.22 in 10.0 mi NW 11.5 mph 18.4 mph N/A   Overcast
7:35 AM 30.0 °F 20.0 °F 22.3 °F 73% 30.23 in 10.0 mi NW 12.7 mph 16.1 mph N/A   Overcast
7:55 AM 29.8 °F 18.4 °F 22.5 °F 74% 30.23 in 10.0 mi NNW 16.1 mph 20.7 mph N/A   Overcast
8:15 AM 29.3 °F 19.6 °F 22.1 °F 75% 30.25 in 10.0 mi NW 11.5 mph 18.4 mph N/A   Overcast
8:35 AM 28.8 °F 20.2 °F 21.6 °F 74% 30.26 in 10.0 mi NW 9.2 mph 18.4 mph N/A   Overcast
8:55 AM 28.4 °F 19.7 °F 21.0 °F 74% 30.27 in 10.0 mi NW 9.2 mph 17.3 mph N/A   Overcast
9:15 AM 28.8 °F 19.5 °F 21.2 °F 73% 30.28 in 10.0 mi WNW 10.4 mph 17.3 mph N/A   Overcast
9:35 AM 28.9 °F 18.2 °F 21.2 °F 73% 30.29 in 10.0 mi NW 13.8 mph 18.4 mph N/A   Overcast
9:55 AM 29.3 °F 19.6 °F 21.6 °F 73% 30.30 in 10.0 mi NW 11.5 mph 17.3 mph N/A   Overcast
10:15 AM 29.3 °F 20.2 °F 21.2 °F 72% 30.31 in 10.0 mi NNW 10.4 mph 20.7 mph N/A   Overcast
10:35 AM 29.7 °F 20.7 °F 21.2 °F 71% 30.31 in 10.0 mi NW 10.4 mph 19.6 mph N/A   Unknown
10:55 AM 29.5 °F 18.8 °F 20.8 °F 70% 30.31 in 10.0 mi NW 13.8 mph - N/A   Overcast
11:15 AM 29.3 °F 19.1 °F 20.5 °F 70% 30.32 in 10.0 mi NNW 12.7 mph 17.3 mph N/A   Overcast
11:35 AM 29.8 °F 18.9 °F 20.5 °F 68% 30.32 in 10.0 mi NW 15.0 mph 18.4 mph N/A   Overcast
11:55 AM 30.6 °F 20.2 °F 19.8 °F 64% 30.31 in 10.0 mi NNW 13.8 mph 17.3 mph N/A   Mostly Cloudy
12:15 PM 32.0 °F 23.0 °F 20.5 °F 63% 30.31 in 10.0 mi NNW 11.5 mph 19.6 mph N/A   Scattered Clouds
12:35 PM 34.3 °F 25.0 °F 20.3 °F 57% 30.31 in 10.0 mi NNW 13.8 mph - N/A   Clear
12:55 PM 34.5 °F 26.2 °F 19.6 °F 54% 30.31 in 10.0 mi NNW 11.5 mph 18.4 mph N/A   Clear
1:15 PM 35.1 °F 25.9 °F 17.4 °F 49% 30.31 in 10.0 mi NNW 13.8 mph 19.6 mph N/A   Clear
1:35 PM 36.5 °F 28.2 °F 19.4 °F 50% 30.31 in 10.0 mi NNW 12.7 mph 18.4 mph N/A   Clear
1:55 PM 36.7 °F 29.4 °F 19.6 °F 50% 30.30 in 10.0 mi NW 10.4 mph 24.2 mph N/A   Clear
2:15 PM 37.8 °F 29.8 °F 19.0 °F 47% 30.29 in 10.0 mi NW 12.7 mph 20.7 mph N/A   Clear
2:35 PM 38.3 °F 29.0 °F 16.3 °F 41% 30.29 in 10.0 mi NNW 17.3 mph 20.7 mph N/A   Clear
2:55 PM 38.3 °F 30.5 °F 18.5 °F 45% 30.28 in 10.0 mi NNW 12.7 mph 21.9 mph N/A   Clear
3:15 PM 38.7 °F 30.5 °F 14.2 °F 37% 30.28 in 10.0 mi NW 13.8 mph 19.6 mph N/A   Clear
3:35 PM 38.8 °F 29.4 °F 15.1 °F 38% 30.28 in 10.0 mi North 18.4 mph 25.3 mph N/A   Clear
3:55 PM 38.7 °F 29.1 °F 15.8 °F 39% 30.28 in 10.0 mi NNW 18.4 mph 26.5 mph N/A   Clear
4:15 PM 39.0 °F 30.3 °F 12.6 °F 34% 30.29 in 10.0 mi WNW 16.1 mph 24.2 mph N/A   Clear
4:35 PM 38.8 °F 31.2 °F 13.6 °F 36% 30.30 in 10.0 mi NW 12.7 mph 20.7 mph N/A   Clear
4:55 PM 37.4 °F 27.5 °F 14.0 °F 38% 30.31 in 10.0 mi NNW 18.4 mph 24.2 mph N/A   Clear
5:15 PM 36.7 °F 27.2 °F 12.6 °F 37% 30.31 in 10.0 mi NNW 16.1 mph 23.0 mph N/A   Scattered Clouds
5:35 PM 35.6 °F 24.8 °F 12.0 °F 38% 30.31 in 10.0 mi NNW 19.6 mph 27.6 mph N/A   Clear
5:55 PM 34.7 °F 24.0 °F 13.3 °F 41% 30.31 in 10.0 mi NNW 18.4 mph 24.2 mph N/A   Clear
6:15 PM 33.8 °F 22.2 °F 12.9 °F 42% 30.32 in 10.0 mi North 20.7 mph 25.3 mph N/A   Scattered Clouds
6:35 PM 32.9 °F 22.0 °F 13.5 °F 45% 30.32 in 10.0 mi NNW 17.3 mph - N/A   Mostly Cloudy
6:55 PM 32.0 °F 21.6 °F 13.6 °F 47% 30.32 in 10.0 mi NNW 15.0 mph - N/A   Scattered Clouds
7:15 PM 32.0 °F 20.8 °F 14.7 °F 49% 30.32 in 10.0 mi NNW 17.3 mph 21.9 mph N/A   Clear
7:35 PM 31.5 °F 20.1 °F 13.8 °F 48% 30.33 in 10.0 mi North 17.3 mph 21.9 mph N/A   Scattered Clouds
7:55 PM 30.9 °F 19.4 °F 14.7 °F 51% 30.34 in 10.0 mi NNW 17.3 mph 24.2 mph N/A   Overcast
8:15 PM 30.2 °F 17.8 °F 12.9 °F 49% 30.34 in 10.0 mi NNW 19.6 mph 26.5 mph N/A   Overcast
8:35 PM 29.8 °F 18.0 °F 13.5 °F 51% 30.36 in 10.0 mi NNW 17.3 mph - N/A   Overcast
8:55 PM 29.3 °F 17.3 °F 12.0 °F 49% 30.37 in 10.0 mi NNW 17.3 mph 23.0 mph N/A   Overcast
9:15 PM 28.9 °F 16.5 °F 12.2 °F 50% 30.38 in 10.0 mi NNW 18.4 mph 23.0 mph N/A   Overcast
9:35 PM 28.8 °F 15.2 °F 12.6 °F 51% 30.38 in 10.0 mi NNW 21.9 mph 26.5 mph N/A   Overcast
9:55 PM 28.2 °F 17.2 °F 13.6 °F 54% 30.39 in 10.0 mi North 13.8 mph - N/A   Overcast
10:15 PM 27.9 °F 16.3 °F 14.2 °F 57% 30.39 in 10.0 mi NNW 15.0 mph 19.6 mph N/A   Overcast
10:35 PM 27.5 °F 14.6 °F 12.2 °F 53% 30.40 in 10.0 mi NNW 18.4 mph 24.2 mph N/A   Overcast
10:55 PM 27.3 °F 15.6 °F 12.4 °F 53% 30.41 in 10.0 mi NNW 15.0 mph 21.9 mph N/A   Overcast
11:15 PM 26.8 °F 15.4 °F 13.1 °F 56% 30.41 in 10.0 mi NNW 13.8 mph 20.7 mph N/A   Overcast
11:35 PM 26.8 °F 16.5 °F 14.7 °F 60% 30.42 in 10.0 mi NNW 11.5 mph - N/A   Overcast
11:55 PM 26.4 °F 15.0 °F 12.7 °F 56% 30.43 in 10.0 mi NNW 13.8 mph 18.4 mph N/A   Overcast